Hourly Data Report for October 26, 2016

All times are specified in Local Standard Time (LST). Add 1 hour to adjust for Daylight Saving Time where and when it is observed.

QIKIQTARJUAQ A
NUNAVUT

67°32'48.000" N
64°01'54.000" W
5.50 m
2400577
YVM

Download Data

Hourly Data (October 2016)
Hourly Data Report for October 26, 2016
Temp Definition
°C
Dew Point Temp Definition
°C
Rel Hum Definition
%
Wind Dir Definition
10's deg

Wind Spd Definition
km/h
Visibility Definition
km
Stn Press Definition
kPa
Hmdx Definition


Wind Chill Definition


Weather Definition


TIME
00:00 Legend Double Dagger -7.7 -11.1 77 LegendMM 9 16.1 101.58   -12 LegendNANA
01:00 Legend Double Dagger -8.9 -12.2 77 18 15 16.1 101.56   -15 LegendNANA
02:00 Legend Double Dagger -8.6 -12.3 75 18 18 16.1 101.54   -16 LegendNANA
03:00 Legend Double Dagger -8.3 -12.5 72 18 13 16.1 101.53   -14 LegendNANA
04:00 Legend Double Dagger -8.0 -12.0 73 19 13 16.1 101.53   -14 LegendNANA
05:00 Legend Double Dagger -9.4 -13.4 73 19 11 16.1 101.51   -15 LegendNANA
06:00 Legend Double Dagger -9.3 -13.6 71 15 9 16.1 101.48   -14 LegendNANA
07:00 Legend Double Dagger -10.0 -14.7 69 14 8 16.1 101.48   -14 LegendNANA
08:00 Legend Double Dagger -9.6 -14.8 66 19 8 16.1 101.46   -14 LegendNANA
09:00 Legend Double Dagger -9.2 -14.8 64 16 9 16.1 101.43   -14 LegendNANA
10:00 Legend Double Dagger -8.0 -14.6 59 12 4 16.1 101.42   -10 LegendNANA
11:00 Legend Double Dagger -9.3 -14.2 68 13 5 16.1 101.40   -12 LegendNANA
12:00 Legend Double Dagger -8.2 -13.5 66 11 5 16.1 101.39   -11 LegendNANA
13:00 Legend Double Dagger -7.5 -13.6 62 15 4 16.1 101.39   -10 LegendNANA
14:00 Legend Double Dagger -7.4 -13.5 62 15 8 16.1 101.38   -11 LegendNANA
15:00 Legend Double Dagger -6.5 -12.9 61 19 9 16.1 101.36   -11 LegendNANA
16:00 Legend Double Dagger -7.1 -13.4 61 15 9 16.1 101.35   -11 LegendNANA
17:00 Legend Double Dagger -7.3 -12.6 66 15 5 16.1 101.35   -10 LegendNANA
18:00 Legend Double Dagger -7.4 -12.1 69 15 8 16.1 101.32   -11 LegendNANA
19:00 Legend Double Dagger -6.2 -11.0 69 18 8 16.1 101.31   -10 LegendNANA
20:00 Legend Double Dagger -6.8 -11.4 70 18 9 16.1 101.27   -11 LegendNANA
21:00 Legend Double Dagger -7.2 -11.1 74 18 9 16.1 101.23   -12 LegendNANA
22:00 Legend Double Dagger -7.0 -11.3 72 19 9 16.1 101.18   -11 LegendNANA
23:00 Legend Double Dagger -7.6 -11.9 72 19 9 16.1 101.16   -12 LegendNANA

Notes on Data Quality.

Legend

  • E = Estimated
  • M = Missing
  • NA = Not Available
  • ‡ = Partner data that is not subject to review by the National Climate Archives
Date modified: